This is the latest recevied weather packets stored in our database for station/object G3VHU. If no packets are shown the sender has not sent any weather packets the latest 10 day(s).
| Time | Temp. | Humidity | Pressure | Rain* | Wind** | Luminosity | Snow |
|---|---|---|---|---|---|---|---|
| 1777788047 | 10° C | 93% | 1010.4 hPa | 2.03 mm | - | - | - |
| 1777787747 | 10° C | 93% | 1010.5 hPa | 1.78 mm | - | - | - |
| 1777787447 | 10° C | 93% | 1010.4 hPa | 1.78 mm | - | - | - |
| 1777787145 | 10° C | 92% | 1010.5 hPa | 1.78 mm | - | - | - |
| 1777786845 | 10° C | 93% | 1010.5 hPa | 1.52 mm | - | - | - |
| 1777786546 | 10° C | 93% | 1010.4 hPa | 1.52 mm | - | - | - |
| 1777786245 | 10° C | 93% | 1010.5 hPa | 1.52 mm | - | - | - |
| 1777785945 | 10° C | 93% | 1010.5 hPa | 1.52 mm | - | - | - |
| 1777785645 | 10° C | 93% | 1010.5 hPa | 1.27 mm | - | - | - |
| 1777785345 | 10° C | 93% | 1010.5 hPa | 1.02 mm | - | - | - |
| 1777785045 | 10° C | 93% | 1010.4 hPa | 0.76 mm | - | - | - |
| 1777784758 | 10° C | 93% | 1010.4 hPa | 0.76 mm | - | - | - |
| 1777784445 | 10° C | 93% | 1010.6 hPa | 0.51 mm | - | - | - |
| 1777784144 | 10° C | 93% | 1010.6 hPa | 0.76 mm | - | - | - |
| 1777783843 | 10° C | 92% | 1010.6 hPa | 0.76 mm | - | - | - |
| 1777783543 | 10° C | 92% | 1010.6 hPa | 1.02 mm | - | - | - |
| 1777783243 | 10° C | 92% | 1010.6 hPa | 1.27 mm | - | - | - |
| 1777782943 | 10° C | 93% | 1010.6 hPa | 1.27 mm | - | - | - |
| 1777782643 | 10° C | 93% | 1010.7 hPa | 1.27 mm | - | - | - |
| 1777782343 | 10° C | 92% | 1010.4 hPa | 1.02 mm | - | - | - |
| 1777782043 | 10° C | 92% | 1010.6 hPa | 1.02 mm | - | - | - |
| 1777781743 | 10° C | 92% | 1010.6 hPa | 1.27 mm | - | - | - |
| 1777781441 | 10° C | 92% | 1010.7 hPa | 1.27 mm | - | - | - |
| 1777781141 | 10° C | 92% | 1010.7 hPa | 1.27 mm | - | - | - |
| 1777780841 | 10° C | 92% | 1010.8 hPa | 1.02 mm | - | - | - |
* Rain latest hour (hover to see other rain measurements)
** Current wind speed in m/s (hover to see current wind gust speed)